GW6061 Weather Reports


time (UTC)temp
F
wind
direction
speed
knots
gust
knots
rain 1hr
in
rain 24hr
in
rain mn
in
humidity
%
barometer
mb
20260504060218 45 330 0.0 0.0 0.00 0.00 0.00 80 1009.6
20260504045015 46 330 0.0 0.0 0.00 0.00 0.00 80 1009.4
20260504041025 47 330 0.0 0.0 0.00 0.00 0.00 78 1009.4
20260504040029 47 330 0.0 0.0 0.00 0.00 0.00 74 1009.4
20260504035007 47 330 0.0 0.0 0.00 0.00 0.00 74 1009.1
20260504034009 48 330 0.0 0.0 0.00 0.00 0.00 72 1009.2
20260504031750 48 330 0.0 0.0 0.00 0.00 0.00 70 1009.0
20260504030735 49 330 0.0 0.0 0.00 0.00 0.00 70 1009.0
20260504025704 49 330 0.0 0.0 0.00 0.00 0.00 65 1009.1
20260504024641 50 330 0.0 0.0 0.00 0.00 0.00 65 1009.1
20260504023505 50 330 0.0 0.0 0.00 0.00 0.00 61 1008.9
20260504022446 51 330 0.0 0.0 0.00 0.00 0.00 64 1008.9
20260504021412 51 330 0.0 0.0 0.00 0.00 0.00 64 1008.9
20260503235059 59 330 0.0 0.0 0.00 0.00 0.00 36 1007.9
20260503234055 60 333 0.0 0.0 0.00 0.00 0.00 36 1007.7
20260503231939 60 326 0.0 0.0 0.00 0.00 0.00 36 1007.6
20260503230908 60 330 0.9 5.2 0.00 0.00 0.00 34 1007.6
20260503225903 61 323 0.9 5.2 0.00 0.00 0.00 35 1007.7
20260503224914 61 295 1.7 4.3 0.00 0.00 0.00 33 1007.7
20260503223905 61 342 2.6 7.0 0.00 0.00 0.00 33 1007.6
20260503221809 61 319 1.7 5.2 0.00 0.00 0.00 33 1007.6
20260503220759 61 333 0.9 11.3 0.00 0.00 0.00 32 1007.7
20260503214620 61 318 2.6 8.7 0.00 0.00 0.00 33 1007.6
20260503213644 61 109 0.9 7.8 0.00 0.00 0.00 33 1007.6
20260503212645 61 352 1.7 6.1 0.00 0.00 0.00 31 1007.5
20260503211636 61 356 1.7 5.2 0.00 0.00 0.00 31 1007.5
20260503210651 61 319 1.7 9.6 0.00 0.00 0.00 31 1007.6
20260503205627 62 340 2.6 9.6 0.00 0.00 0.00 29 1007.7
20260503204636 62 330 1.7 6.1 0.00 0.00 0.00 30 1007.7
20260503203624 61 323 2.6 11.3 0.00 0.00 0.00 31 1007.8
20260503202609 61 315 4.3 11.3 0.00 0.00 0.00 31 1007.9
20260503201628 61 346 4.3 8.7 0.00 0.00 0.00 30 1007.9
20260503200619 61 352 2.6 7.8 0.00 0.00 0.00 33 1008.1
20260503195613 60 313 1.7 3.5 0.00 0.00 0.00 35 1008.4
20260503194543 60 304 2.6 11.3 0.00 0.00 0.00 36 1008.4
20260503193526 60 343 4.3 9.6 0.00 0.00 0.00 34 1008.4
20260503192537 59 347 1.7 8.7 0.00 0.00 0.00 35 1008.6
20260503191520 60 333 0.0 0.9 0.00 0.00 0.00 35 1008.6
20260503185341 59 349 3.5 9.6 0.00 0.00 0.00 35 1009.0
20260503184334 59 340 1.7 5.2 0.00 0.00 0.00 35 1009.3
20260503183304 59 319 3.5 9.6 0.00 0.00 0.00 37 1009.3
20260503182326 59 301 2.6 10.4 0.00 0.00 0.00 37 1009.3
20260503180227 58 308 3.5 9.6 0.00 0.00 0.00 36 1009.3
20260503175212 58 329 2.6 9.6 0.00 0.00 0.00 38 1009.5
20260503174152 57 316 1.7 7.8 0.00 0.00 0.00 38 1009.4
20260503173130 58 318 1.7 10.4 0.00 0.00 0.00 37 1009.4
20260503172130 57 339 2.6 10.4 0.00 0.00 0.00 37 1009.6
20260503171152 57 332 4.3 13.0 0.00 0.00 0.00 36 1009.7
20260503170149 57 48 4.3 13.0 0.00 0.00 0.00 36 1009.7
20260503150906 53 322 1.7 9.6 0.00 0.00 0.00 42 1010.2
20260503130552 46 330 3.5 9.6 0.00 0.00 0.00 59 1010.4